EW2310 Weather Reports


Display with metric or nautical units.
time (UTC)temp
F
wind
direction
speed
MPH
gust
MPH
rain 1hr
in
rain 24hr
in
rain mn
in
humidity
%
barometer
mb
20260905095542 90 217 0.0 5.0 0.00 0.00 0.00 41 1017.3
20260905095039 90 260 0.0 4.0 0.00 0.00 0.00 41 1017.3
20260905094539 90 232 1.0 4.0 0.00 0.00 0.00 42 1017.2
20260905094039 90 214 4.0 5.0 0.00 0.00 0.00 41 1017.2
20260905093539 90 227 0.0 10.0 0.00 0.00 0.00 41 1017.3
20260905093039 90 245 3.0 10.0 0.00 0.00 0.00 41 1017.2
20260905092539 90 200 1.0 8.0 0.00 0.00 0.00 39 1017.1
20260905092039 90 186 4.0 6.0 0.00 0.00 0.00 37 1017.1
20260905091539 90 185 1.0 6.0 0.00 0.00 0.00 36 1017.1
20260905091039 90 166 3.0 6.0 0.00 0.00 0.00 37 1017.1
20260905090539 90 170 5.0 4.0 0.00 0.00 0.00 38 1017.1
20260905090039 89 218 0.0 5.0 0.00 0.00 0.00 37 1017.0
20260905085542 90 175 1.0 3.0 0.00 0.00 0.00 38 1017.0
20260905085039 89 225 0.0 1.0 0.00 0.00 0.00 39 1017.1
20260905084542 89 227 0.0 3.0 0.00 0.00 0.00 39 1017.1
20260905084039 89 312 2.0 2.0 0.00 0.00 0.00 38 1017.2
20260905083539 89 229 0.0 2.0 0.00 0.00 0.00 39 1017.1
20260905083039 89 214 0.0 1.0 0.00 0.00 0.00 39 1017.1
20260905082539 89 211 0.0 3.0 0.00 0.00 0.00 38 1017.1
20260905082039 89 266 0.0 1.0 0.00 0.00 0.00 38 1017.0
20260905081539 89 266 0.0 3.0 0.00 0.00 0.00 39 1016.9
20260905081039 88 280 0.0 1.0 0.00 0.00 0.00 40 1016.8
20260905080539 87 280 0.0 1.0 0.00 0.00 0.00 41 1016.8
20260905080039 86 280 0.0 2.0 0.00 0.00 0.00 41 1016.7
20260905075539 87 306 0.0 1.0 0.00 0.00 0.00 40 1016.8
20260905075039 87 306 0.0 0.0 0.00 0.00 0.00 39 1016.8
20260905074539 86 306 0.0 0.0 0.00 0.00 0.00 41 1016.8
20260905074039 85 306 0.0 0.0 0.00 0.00 0.00 42 1016.7
20260905073539 84 306 0.0 0.0 0.00 0.00 0.00 43 1016.7
20260905073042 84 306 0.0 0.0 0.00 0.00 0.00 43 1016.7
20260905072539 83 306 0.0 0.0 0.00 0.00 0.00 44 1016.7
20260905072039 83 306 0.0 0.0 0.00 0.00 0.00 44 1016.9
20260905071539 83 324 0.0 1.0 0.00 0.00 0.00 44 1016.9
20260905071039 83 324 0.0 4.0 0.00 0.00 0.00 44 1016.9
20260905070539 84 304 0.0 2.0 0.00 0.00 0.00 43 1017.0
20260905070042 84 222 0.0 3.0 0.00 0.00 0.00 44 1017.0
20260905065542 84 43 0.0 1.0 0.00 0.00 0.00 44 1017.0
20260905065039 83 42 0.0 1.0 0.00 0.00 0.00 44 1017.0
20260905064039 82 42 0.0 0.0 0.00 0.00 0.00 44 1016.9
20260905063539 82 42 0.0 1.0 0.00 0.00 0.00 45 1016.8
20260905063042 82 42 0.0 1.0 0.00 0.00 0.00 45 1016.7
20260905062539 81 42 0.0 0.0 0.00 0.00 0.00 45 1016.8
20260905062039 80 42 0.0 1.0 0.00 0.00 0.00 46 1016.7
20260905061539 80 42 0.0 2.0 0.00 0.00 0.00 45 1016.6
20260905061042 80 330 0.0 1.0 0.00 0.00 0.00 45 1016.5
20260905060539 79 330 0.0 0.0 0.00 0.00 0.00 46 1016.5
20260905060042 77 330 0.0 0.0 0.00 0.00 0.00 48 1016.4
20260905055539 76 330 0.0 1.0 0.00 0.00 0.00 48 1016.3
20260905055039 76 331 0.0 2.0 0.00 0.00 0.00 49 1016.3
20260905054542 76 331 0.0 1.0 0.00 0.00 0.00 50 1016.3
20260905054040 76 331 0.0 1.0 0.00 0.00 0.00 51 1016.3
20260905053539 76 331 0.0 1.0 0.00 0.00 0.00 52 1016.3
20260905053042 75 330 0.0 0.0 0.00 0.00 0.00 57 1016.2
20260905052539 75 330 0.0 0.0 0.00 0.00 0.00 58 1016.2
20260905052039 74 330 0.0 0.0 0.00 0.00 0.00 58 1016.2
20260905051539 74 330 0.0 0.0 0.00 0.00 0.00 59 1016.2
20260905051039 73 330 0.0 0.0 0.00 0.00 0.00 60 1016.2
20260905050539 73 330 0.0 0.0 0.00 0.00 0.00 61 1016.1
20260905050039 73 330 0.0 0.0 0.00 0.00 0.00 61 1016.1
20260905045542 73 330 0.0 1.0 0.00 0.00 0.00 61 1016.0
20260905045042 73 330 0.0 0.0 0.00 0.00 0.00 61 1016.0
20260905044539 73 330 0.0 1.0 0.00 0.00 0.00 61 1015.9
20260905044042 73 330 0.0 0.0 0.00 0.00 0.00 61 1015.9
20260905043543 73 330 0.0 1.0 0.00 0.00 0.00 61 1015.9
20260905043039 73 330 0.0 1.0 0.00 0.00 0.00 61 1015.8
20260905042539 73 329 0.0 2.0 0.00 0.00 0.00 61 1015.8
20260905042039 73 329 0.0 2.0 0.00 0.00 0.00 61 1015.8
20260905041542 74 328 1.0 1.0 0.00 0.00 0.00 61 1015.8
20260905041042 74 329 0.0 2.0 0.00 0.00 0.00 61 1015.8
20260905040539 74 328 0.0 2.0 0.00 0.00 0.00 61 1015.9
20260905040042 74 321 0.0 1.0 0.00 0.00 0.00 61 1015.9
20260905035539 74 321 0.0 0.0 0.00 0.00 0.00 62 1015.9
20260905035042 74 321 0.0 1.0 0.00 0.00 0.00 63 1015.9
20260905034542 74 321 0.0 2.0 0.00 0.00 0.00 63 1015.9
20260905034039 74 321 0.0 2.0 0.00 0.00 0.00 63 1016.0
20260905033539 74 327 0.0 2.0 0.00 0.00 0.00 63 1016.0
20260905033042 74 327 1.0 2.0 0.00 0.00 0.00 63 1016.0
20260905032539 74 326 0.0 1.0 0.00 0.00 0.00 62 1015.9
20260905032039 74 326 0.0 0.0 0.00 0.00 0.00 62 1015.9
20260905031542 74 326 0.0 0.0 0.00 0.00 0.00 61 1015.9
20260905031039 74 326 0.0 1.0 0.00 0.00 0.00 61 1015.8
20260905030539 74 326 0.0 1.0 0.00 0.00 0.00 60 1015.9
20260905030039 74 326 0.0 1.0 0.00 0.00 0.00 59 1015.9
20260905025539 75 326 2.0 3.0 0.00 0.00 0.00 59 1016.0
20260905025039 75 292 0.0 2.0 0.00 0.00 0.00 59 1016.0
20260905024539 75 327 0.0 1.0 0.00 0.00 0.00 57 1016.0
20260905024039 75 327 0.0 1.0 0.00 0.00 0.00 56 1016.0
20260905023542 75 327 0.0 1.0 0.00 0.00 0.00 55 1016.0
20260905023039 75 327 0.0 0.0 0.00 0.00 0.00 54 1016.0
20260905022539 75 327 0.0 1.0 0.00 0.00 0.00 55 1015.9
20260905022043 76 327 0.0 1.0 0.00 0.00 0.00 55 1015.9
20260905021543 76 327 0.0 3.0 0.00 0.00 0.00 55 1015.9
20260905021040 76 323 2.0 3.0 0.00 0.00 0.00 56 1015.8
20260905020539 76 316 1.0 2.0 0.00 0.00 0.00 56 1015.7
20260905020042 76 316 0.0 2.0 0.00 0.00 0.00 57 1015.7
20260905015539 76 325 0.0 3.0 0.00 0.00 0.00 57 1015.7
20260905015039 76 326 0.0 1.0 0.00 0.00 0.00 57 1015.8
20260905014540 76 326 0.0 3.0 0.00 0.00 0.00 58 1015.8
20260905014042 76 323 0.0 4.0 0.00 0.00 0.00 59 1015.9
20260905013540 76 292 0.0 2.0 0.00 0.00 0.00 59 1016.0
20260905013039 76 303 0.0 1.0 0.00 0.00 0.00 58 1015.9
20260905012540 76 303 0.0 2.0 0.00 0.00 0.00 58 1016.0
20260905012039 76 298 0.0 1.0 0.00 0.00 0.00 57 1016.1
20260905011539 77 298 0.0 0.0 0.00 0.00 0.00 56 1016.1
20260905011039 77 298 0.0 1.0 0.00 0.00 0.00 55 1016.2
20260905010539 77 298 0.0 1.0 0.00 0.00 0.00 53 1016.2
20260905010039 77 294 0.0 2.0 0.00 0.00 0.00 51 1016.1
20260905005539 77 329 1.0 3.0 0.00 0.00 0.00 49 1016.2
20260905005042 77 325 0.0 3.0 0.00 0.00 0.00 50 1016.2
20260905004539 77 330 0.0 3.0 0.00 0.00 0.00 51 1016.2
20260905004042 78 316 0.0 1.0 0.00 0.00 0.00 51 1016.2
20260905003539 78 317 0.0 0.0 0.00 0.00 0.00 51 1016.2
20260905003039 78 317 0.0 0.0 0.00 0.00 0.00 50 1016.3
20260905002539 78 317 0.0 0.0 0.00 0.00 0.00 49 1016.3
20260905002039 79 317 0.0 0.0 0.00 0.00 0.00 48 1016.4
20260905001539 79 317 0.0 1.0 0.00 0.00 0.00 46 1016.4
20260905001039 80 317 0.0 1.0 0.00 0.00 0.00 45 1016.4
20260905000542 80 317 0.0 1.0 0.00 0.00 0.00 44 1016.5
20260905000042 80 317 0.0 0.0 0.00 0.00 0.00 45 1016.5
20260904235539 80 317 0.0 0.0 0.00 0.00 0.00 45 1016.6
20260904235039 80 317 0.0 1.0 0.00 0.00 0.00 45 1016.6
20260904234539 81 317 0.0 1.0 0.00 0.00 0.00 44 1016.5
20260904234042 81 317 0.0 1.0 0.00 0.00 0.00 45 1016.5
20260904233539 81 317 0.0 2.0 0.00 0.00 0.00 45 1016.5
20260904233039 81 315 2.0 1.0 0.00 0.00 0.00 46 1016.6
20260904232540 81 314 0.0 1.0 0.00 0.00 0.00 46 1016.6
20260904232042 81 313 0.0 2.0 0.00 0.00 0.00 45 1016.6
20260904231542 81 309 0.0 2.0 0.00 0.00 0.00 45 1016.7
20260904231040 81 306 0.0 0.0 0.00 0.00 0.00 45 1016.7
20260904230539 81 306 0.0 1.0 0.00 0.00 0.00 44 1016.8
20260904230039 81 306 0.0 2.0 0.00 0.00 0.00 45 1016.8
20260904225540 81 306 0.0 1.0 0.00 0.00 0.00 45 1016.8
20260904225039 81 306 0.0 0.0 0.00 0.00 0.00 45 1016.9
20260904224539 81 306 0.0 0.0 0.00 0.00 0.00 45 1016.9
20260904224039 82 306 0.0 0.0 0.00 0.00 0.00 45 1016.9
20260904223539 82 306 0.0 1.0 0.00 0.00 0.00 45 1016.9
20260904223039 82 306 0.0 1.0 0.00 0.00 0.00 45 1016.9
20260904222539 82 306 0.0 0.0 0.00 0.00 0.00 46 1016.9
20260904222042 82 306 0.0 0.0 0.00 0.00 0.00 46 1016.9
20260904221539 82 306 0.0 0.0 0.00 0.00 0.00 47 1016.9
20260904221039 82 306 0.0 0.0 0.00 0.00 0.00 47 1016.9
20260904220539 82 306 0.0 1.0 0.00 0.00 0.00 46 1016.9
20260904220039 82 306 0.0 0.0 0.00 0.00 0.00 47 1016.9
20260904215542 82 306 0.0 0.0 0.00 0.00 0.00 47 1016.8
20260904215039 82 306 0.0 0.0 0.00 0.00 0.00 46 1016.8
20260904214539 82 306 0.0 0.0 0.00 0.00 0.00 46 1016.8
20260904214039 82 306 0.0 0.0 0.00 0.00 0.00 47 1016.7
20260904213542 82 306 0.0 0.0 0.00 0.00 0.00 47 1016.8
20260904213039 82 306 0.0 0.0 0.00 0.00 0.00 47 1016.7
20260904212539 82 306 0.0 0.0 0.00 0.00 0.00 48 1016.7
20260904212039 82 306 0.0 0.0 0.00 0.00 0.00 48 1016.8
20260904211542 82 306 0.0 0.0 0.00 0.00 0.00 48 1016.8
20260904211039 82 306 0.0 0.0 0.00 0.00 0.00 48 1016.9
20260904210539 82 306 0.0 0.0 0.00 0.00 0.00 49 1016.9
20260904210042 82 306 0.0 0.0 0.00 0.00 0.00 49 1016.9
20260904205539 82 306 0.0 0.0 0.00 0.00 0.00 49 1016.8
20260904205042 82 306 0.0 1.0 0.00 0.00 0.00 50 1016.9
20260904204542 82 306 0.0 0.0 0.00 0.00 0.00 50 1016.9
20260904204039 82 306 0.0 0.0 0.00 0.00 0.00 51 1017.0
20260904203539 82 306 0.0 0.0 0.00 0.00 0.00 51 1016.9
20260904203039 82 306 0.0 0.0 0.00 0.00 0.00 52 1016.9
20260904202542 82 306 0.0 0.0 0.00 0.00 0.00 51 1016.9
20260904202042 82 306 0.0 0.0 0.00 0.00 0.00 50 1016.9
20260904201539 82 306 0.0 0.0 0.00 0.00 0.00 50 1016.9
20260904201042 82 306 0.0 0.0 0.00 0.00 0.00 51 1017.0
20260904200539 83 306 0.0 0.0 0.00 0.00 0.00 51 1017.1
20260904200039 83 306 0.0 0.0 0.00 0.00 0.00 51 1017.1
20260904195542 83 306 0.0 0.0 0.00 0.00 0.00 52 1017.1
20260904195039 83 306 0.0 0.0 0.00 0.00 0.00 52 1017.2
20260904194539 83 306 0.0 0.0 0.00 0.00 0.00 53 1017.2
20260904194039 83 306 0.0 0.0 0.00 0.00 0.00 52 1017.2
20260904193539 83 306 0.0 0.0 0.00 0.00 0.00 53 1017.2
20260904193042 83 306 0.0 0.0 0.00 0.00 0.00 51 1017.2
20260904192539 83 306 0.0 0.0 0.00 0.00 0.00 51 1017.1
20260904192039 84 306 0.0 0.0 0.00 0.00 0.00 51 1017.1
20260904191539 84 306 0.0 0.0 0.00 0.00 0.00 50 1017.1
20260904191039 84 306 0.0 0.0 0.00 0.00 0.00 50 1017.1
20260904190539 84 306 0.0 0.0 0.00 0.00 0.00 50 1017.0
20260904190039 84 306 0.0 0.0 0.00 0.00 0.00 50 1017.0
20260904185539 85 306 0.0 0.0 0.00 0.00 0.00 50 1017.0
20260904185039 85 306 0.0 0.0 0.00 0.00 0.00 50 1016.9
20260904184539 85 306 0.0 0.0 0.00 0.00 0.00 49 1016.9
20260904184039 84 306 0.0 0.0 0.00 0.00 0.00 49 1016.9
20260904183539 84 306 0.0 0.0 0.00 0.00 0.00 50 1016.8
20260904183039 84 306 0.0 0.0 0.00 0.00 0.00 50 1016.8
20260904182539 85 306 0.0 0.0 0.00 0.00 0.00 50 1016.7
20260904182039 85 306 0.0 0.0 0.00 0.00 0.00 50 1016.7
20260904181539 85 306 0.0 0.0 0.00 0.00 0.00 50 1016.6
20260904181039 85 306 0.0 0.0 0.00 0.00 0.00 50 1016.5
20260904180539 85 306 0.0 1.0 0.00 0.00 0.00 50 1016.4
20260904180042 85 306 0.0 0.0 0.00 0.00 0.00 49 1016.4
20260904175539 85 306 0.0 0.0 0.00 0.00 0.00 48 1016.3
20260904175039 85 306 0.0 0.0 0.00 0.00 0.00 49 1016.3
20260904174542 86 306 0.0 0.0 0.00 0.00 0.00 49 1016.3
20260904174039 86 306 0.0 0.0 0.00 0.00 0.00 49 1016.3
20260904173539 86 306 0.0 0.0 0.00 0.00 0.00 49 1016.2
20260904173039 86 306 0.0 0.0 0.00 0.00 0.00 48 1016.2
20260904172539 86 306 0.0 0.0 0.00 0.00 0.00 48 1016.3
20260904172039 86 306 0.0 1.0 0.00 0.00 0.00 48 1016.3
20260904171539 86 306 0.0 1.0 0.00 0.00 0.00 50 1016.3
20260904171039 87 306 0.0 1.0 0.00 0.00 0.00 51 1016.3
20260904170539 87 304 0.0 1.0 0.00 0.00 0.00 50 1016.3
20260904170039 87 302 0.0 0.0 0.00 0.00 0.00 50 1016.3
20260904165539 87 301 0.0 0.0 0.00 0.00 0.00 50 1016.3
20260904165039 87 305 0.0 1.0 0.00 0.00 0.00 49 1016.3
20260904164539 87 213 0.0 2.0 0.00 0.00 0.00 49 1016.3
20260904164042 87 330 0.0 2.0 0.00 0.00 0.00 49 1016.3
20260904163539 88 256 0.0 2.0 0.00 0.00 0.00 47 1016.3
20260904163039 88 341 0.0 1.0 0.00 0.00 0.00 46 1016.2
20260904162539 88 211 0.0 2.0 0.00 0.00 0.00 47 1016.2
20260904162039 88 348 0.0 1.0 0.00 0.00 0.00 48 1016.2
20260904161539 89 294 0.0 1.0 0.00 0.00 0.00 46 1016.2
20260904161039 89 265 0.0 1.0 0.00 0.00 0.00 46 1016.1
20260904160539 89 182 0.0 3.0 0.00 0.00 0.00 47 1016.1
20260904160039 89 211 0.0 5.0 0.00 0.00 0.00 49 1016.1
20260904155539 89 229 0.0 4.0 0.00 0.00 0.00 49 1016.1
20260904155039 89 201 2.0 5.0 0.00 0.00 0.00 48 1016.2
20260904154539 89 222 1.0 7.0 0.00 0.00 0.00 47 1016.2
20260904154039 89 202 0.0 4.0 0.00 0.00 0.00 45 1016.2
20260904153541 89 189 0.0 3.0 0.00 0.00 0.00 46 1016.2
20260904153039 89 251 0.0 6.0 0.00 0.00 0.00 41 1016.3
20260904152539 89 217 0.0 7.0 0.00 0.00 0.00 46 1016.3
20260904152039 89 234 1.0 4.0 0.00 0.00 0.00 46 1016.4
20260904151542 89 270 0.0 7.0 0.00 0.00 0.00 47 1016.3
20260904151039 89 242 4.0 7.0 0.00 0.00 0.00 47 1016.3
20260904150539 90 229 2.0 3.0 0.00 0.00 0.00 48 1016.3
20260904150039 90 209 2.0 8.0 0.00 0.00 0.00 47 1016.3
20260904145539 90 198 0.0 4.0 0.00 0.00 0.00 49 1016.2
20260904145039 89 29 0.0 2.0 0.00 0.00 0.00 51 1016.2
20260904144539 89 153 0.0 8.0 0.00 0.00 0.00 50 1016.3
20260904144039 90 210 3.0 5.0 0.00 0.00 0.00 49 1016.3
20260904143542 90 203 1.0 5.0 0.00 0.00 0.00 52 1016.3
20260904143039 89 327 0.0 4.0 0.00 0.00 0.00 53 1016.4
20260904142545 90 167 0.0 6.0 0.00 0.00 0.00 51 1016.5
20260904142039 89 190 0.0 7.0 0.00 0.00 0.00 52 1016.5
20260904141539 89 298 0.0 3.0 0.00 0.00 0.00 50 1016.5
20260904141039 90 221 3.0 9.0 0.00 0.00 0.00 48 1016.5
20260904140539 90 234 6.0 7.0 0.00 0.00 0.00 51 1016.6
20260904140039 90 163 0.0 6.0 0.00 0.00 0.00 49 1016.6
20260904135539 90 239 0.0 5.0 0.00 0.00 0.00 47 1016.6
20260904135039 90 40 0.0 8.0 0.00 0.00 0.00 45 1016.5
20260904134539 90 257 1.0 9.0 0.00 0.00 0.00 41 1016.6
20260904134039 90 274 4.0 11.0 0.00 0.00 0.00 43 1016.5
20260904133542 90 215 0.0 8.0 0.00 0.00 0.00 45 1016.5
20260904133042 90 219 3.0 10.0 0.00 0.00 0.00 43 1016.5
20260904132539 90 207 1.0 8.0 0.00 0.00 0.00 46 1016.5
20260904132039 90 168 0.0 9.0 0.00 0.00 0.00 45 1016.6
20260904131539 90 163 1.0 4.0 0.00 0.00 0.00 47 1016.6
20260904131039 91 95 2.0 10.0 0.00 0.00 0.00 47 1016.6
20260904130539 90 302 1.0 7.0 0.00 0.00 0.00 46 1016.6
20260904130039 90 250 3.0 10.0 0.00 0.00 0.00 46 1016.7
20260904125539 90 180 3.0 12.0 0.00 0.00 0.00 40 1016.7
20260904125042 90 294 0.0 7.0 0.00 0.00 0.00 44 1016.7
20260904124539 90 187 2.0 7.0 0.00 0.00 0.00 45 1016.7
20260904124039 90 323 2.0 11.0 0.00 0.00 0.00 42 1016.7
20260904123539 91 227 0.0 9.0 0.00 0.00 0.00 39 1016.9
20260904123039 91 159 4.0 5.0 0.00 0.00 0.00 44 1016.8
20260904122539 90 176 0.0 3.0 0.00 0.00 0.00 45 1016.9
20260904122039 90 196 0.0 9.0 0.00 0.00 0.00 42 1016.9
20260904121539 91 227 4.0 10.0 0.00 0.00 0.00 39 1017.0
20260904121039 91 179 0.0 7.0 0.00 0.00 0.00 42 1017.0
20260904120539 91 211 0.0 8.0 0.00 0.00 0.00 43 1017.0
20260904120039 91 220 0.0 10.0 0.00 0.00 0.00 40 1017.0
20260904115539 91 237 0.0 10.0 0.00 0.00 0.00 38 1017.1
20260904115039 91 229 3.0 4.0 0.00 0.00 0.00 40 1017.0
20260904114539 90 219 0.0 10.0 0.00 0.00 0.00 43 1017.1
20260904114042 90 200 3.0 8.0 0.00 0.00 0.00 40 1017.0
20260904113539 90 163 2.0 9.0 0.00 0.00 0.00 42 1017.0
20260904113039 90 166 3.0 10.0 0.00 0.00 0.00 43 1017.2
20260904112539 90 162 0.0 5.0 0.00 0.00 0.00 42 1017.2
20260904112039 90 188 1.0 9.0 0.00 0.00 0.00 42 1017.2
20260904111542 90 159 5.0 9.0 0.00 0.00 0.00 41 1017.2
20260904111039 90 175 1.0 11.0 0.00 0.00 0.00 41 1017.1
20260904110539 90 205 3.0 12.0 0.00 0.00 0.00 41 1017.3
20260904110039 90 186 1.0 7.0 0.00 0.00 0.00 40 1017.2
20260904105542 90 232 2.0 9.0 0.00 0.00 0.00 41 1017.2
20260904105042 90 192 3.0 10.0 0.00 0.00 0.00 42 1017.2
20260904104542 90 165 4.0 6.0 0.00 0.00 0.00 42 1017.1
20260904104039 90 233 1.0 9.0 0.00 0.00 0.00 41 1017.1
20260904103542 90 198 0.0 8.0 0.00 0.00 0.00 40 1017.1
20260904103039 90 149 2.0 8.0 0.00 0.00 0.00 39 1017.1
20260904102539 91 209 4.0 14.0 0.00 0.00 0.00 38 1017.2
20260904102039 91 170 1.0 8.0 0.00 0.00 0.00 38 1017.1
20260904101539 90 194 0.0 15.0 0.00 0.00 0.00 37 1017.2
20260904101039 91 215 3.0 8.0 0.00 0.00 0.00 37 1017.2
20260904100539 90 212 1.0 9.0 0.00 0.00 0.00 37 1017.2
20260904100042 90 131 2.0 10.0 0.00 0.00 0.00 38 1017.2